This demonstration page uses our WeatherBlox Daily Observations layout. Learn more.

Left ArrowRight Arrow

Hourly Observations for June 19, 2017

Temp ( °F °C ) Dew Point ( °F °C ) Humidity (%) Winds ( mph kmh ) Pressure ( in mb ) Visibility ( mi km ) Precip ( " mm )
12:35 am 00:35 Cloudy with Drizzle 66 18.8 54 12 65 65 NNE 7 11 29.94 1014 10 16.0934 0 0
12:55 am 00:55 Cloudy 65 18.1 54 12.4 70 70 NE 8 13 29.94 1014 10 16.0934 0 0
1:15 am 01:15 Cloudy 65 18.2 53 11.9 67 67 NNE 7 11 29.97 1015 10 16.0934 0 0
1:35 am 01:35 Cloudy 65 18.1 53 11.5 66 66 ENE 7 11 29.97 1015 10 16.0934 0 0
1:55 am 01:55 Cloudy 65 18.4 50 10.2 59 59 NE 8 13 29.94 1014 10 16.0934 0 0
2:15 am 02:15 Cloudy with Drizzle 64 18 51 10.5 62 62 NE 3 6 29.97 1015 10 16.0934 0 0
2:35 am 02:35 Cloudy 65 18.6 50 9.9 57 57 S 7 11 29.94 1014 10 16.0934 0 0
2:55 am 02:55 Cloudy with Drizzle 65 18.3 51 10.8 62 62 SW 6 9 29.97 1015 10 16.0934 0 0
3:15 am 03:15 Cloudy 66 18.8 49 9.2 54 54 S 8 13 29.97 1015 10 16.0934 0 0
3:35 am 03:35 Cloudy 65 18.5 50 9.8 57 57 S 7 11 29.94 1014 10 16.0934 0 0
3:55 am 03:55 Cloudy 65 18.5 50 10.2 59 59 SSW 5 7 29.94 1014 10 16.0934 0 0
4:15 am 04:15 Cloudy 64 18 51 10.8 63 63 SSW 8 13 29.94 1014 10 16.0934 0 0
4:35 am 04:35 Cloudy 65 18.5 51 10.3 59 59 SSW 7 11 29.94 1014 10 16.0934 0 0
4:55 am 04:55 Partly Cloudy 65 18.1 51 10.7 62 62 SSW 3 6 29.94 1014 10 16.0934 0 0
5:15 am 05:15 Clear 65 18.2 51 10.4 61 61 SSW 5 7 29.94 1014 10 16.0934 0 0
5:35 am 05:35 Clear 65 18.2 50 10.2 60 60 SW 5 7 29.94 1014 10 16.0934 0 0
5:55 am 05:55 Clear 65 18.3 51 10.3 60 60 SW 7 11 29.94 1014 10 16.0934 0 0
6:15 am 06:15 Sunny 65 18.5 51 10.5 60 60 N 7 11 29.97 1015 10 16.0934 0 0
6:35 am 06:35 Sunny 64 17.8 52 11.2 65 65 NE 7 11 29.97 1015 10 16.0934 0 0
6:55 am 06:55 Partly Cloudy 63 17 54 12.1 73 73 NNE 3 6 29.97 1015 10 16.0934 0 0
7:15 am 07:15 Mostly Cloudy 63 17.3 53 11.9 71 71 NE 6 9 30 1016 10 16.0934 0 0
7:35 am 07:35 Cloudy 64 17.5 54 12.2 71 71 N 3 6 30 1016 10 16.0934 0 0
7:55 am 07:55 Mostly Cloudy 64 18 54 12.1 69 69 NNE 5 7 30 1016 10 16.0934 0 0
8:15 am 08:15 Mostly Cloudy 65 18.6 53 11.6 64 64 NNE 5 7 30 1016 10 16.0934 0 0
8:35 am 08:35 Cloudy 66 19.1 54 12.1 64 64 Calm 30 1016 10 16.0934 0 0
8:55 am 08:55 Cloudy 67 19.4 53 11.9 62 62 NNW 3 6 30.03 1017 10 16.0934 0 0
9:15 am 09:15 Partly Cloudy 69 20.4 54 12.2 59 59 NNW 5 7 30 1016 10 16.0934 0 0
9:35 am 09:35 Sunny 71 21.4 54 12.1 56 56 NNW 6 9 30 1016 10 16.0934 0 0
9:55 am 09:55 Sunny 72 22.2 53 11.8 52 52 NNW 9 15 30 1016 10 16.0934 0 0
10:15 am 10:15 Sunny 73 23 52 11.3 48 48 NNW 7 11 30 1016 10 16.0934 0 0
10:35 am 10:35 Sunny 75 23.8 52 11.1 45 45 NNW 8 13 30 1016 10 16.0934 0 0
10:55 am 10:55 Sunny 76 24.6 52 11.2 43 43 NW 8 13 29.97 1015 10 16.0934 0 0
11:15 am 11:15 Sunny 77 25.1 51 10.5 40 40 WNW 9 15 29.97 1015 10 16.0934 0 0
11:35 am 11:35 Sunny 78 25.5 51 10.5 39 39 NNW 10 17 29.97 1015 10 16.0934 0 0
11:55 am 11:55 Sunny 78 25.5 51 10.3 38 38 NNW 6 9 29.97 1015 10 16.0934 0 0
12:15 pm 12:15 Sunny 79 26.1 47 8.3 32 32 NNW 12 19 29.97 1015 10 16.0934 0 0
12:35 pm 12:35 Sunny 80 26.5 47 8.2 31 31 N 10 17 29.97 1015 10 16.0934 0 0
12:55 pm 12:55 Sunny 80 26.7 46 7.6 30 30 N 7 11 29.97 1015 10 16.0934 0 0
1:15 pm 13:15 Sunny 81 27 44 6.9 28 28 N 8 13 29.97 1015 10 16.0934 0 0
1:35 pm 13:35 Sunny 81 27.3 45 7.3 28 28 N 10 17 29.97 1015 10 16.0934 0 0
1:55 pm 13:55 Sunny 82 27.7 44 6.9 27 27 NNW 8 13 29.97 1015 10 16.0934 0 0
2:15 pm 14:15 Sunny 82 28 41 4.9 23 23 NNW 8 13 29.91 1013 10 16.0934 0 0
2:35 pm 14:35 Sunny 83 28.4 43 5.9 24 24 NNW 12 19 29.91 1013 10 16.0934 0 0
2:55 pm 14:55 Sunny 83 28.5 42 5.7 23 23 N 7 11 29.91 1013 10 16.0934 0 0
3:15 pm 15:15 Sunny 84 28.9 43 6 23 23 N 12 19 29.91 1013 10 16.0934 0 0
3:35 pm 15:35 Sunny 85 29.2 42 5.4 22 22 NW 14 22 29.91 1013 10 16.0934 0 0
3:55 pm 15:55 Sunny 85 29.4 40 4.6 21 21 W 13 20 29.91 1013 10 16.0934 0 0
4:15 pm 16:15 Sunny 85 29.3 42 5.3 22 22 NW 13 20 29.91 1013 10 16.0934 0 0
4:35 pm 16:35 Sunny 84 28.7 40 4.6 21 21 WNW 9 15 29.91 1013 10 16.0934 0 0
4:55 pm 16:55 Sunny 85 29.3 40 4.6 21 21 WNW 9 15 29.91 1013 10 16.0934 0 0
5:15 pm 17:15 Sunny 85 29.2 40 4.5 21 21 NNW 10 17 29.91 1013 10 16.0934 0 0
5:35 pm 17:35 Sunny 85 29.5 41 5.1 21 21 NW 8 13 29.91 1013 10 16.0934 0 0
5:55 pm 17:55 Sunny 85 29.2 40 4.6 21 21 NW 13 20 29.91 1013 10 16.0934 0 0
6:15 pm 18:15 Sunny 85 29.2 41 5.1 22 22 NW 10 17 29.91 1013 10 16.0934 0 0
6:35 pm 18:35 Sunny 84 29.1 40 4.5 21 21 WNW 12 19 29.91 1013 10 16.0934 0 0
6:55 pm 18:55 Sunny 84 29 41 4.8 21 21 NW 6 9 29.91 1013 10 16.0934 0 0
7:15 pm 19:15 Sunny 84 28.7 39 4.1 21 21 WNW 7 11 29.91 1013 10 16.0934 0 0
7:35 pm 19:35 Sunny 83 28.2 42 5.7 24 24 NW 6 9 29.91 1013 10 16.0934 0 0
7:55 pm 19:55 Sunny 82 27.7 44 6.7 26 26 NW 7 11 29.91 1013 10 16.0934 0 0
8:15 pm 20:15 Sunny 79 26.2 45 7.2 30 30 WNW 6 9 29.94 1014 10 16.0934 0 0
8:35 pm 20:35 Sunny 78 25.7 44 6.5 29 29 WNW 5 7 29.94 1014 10 16.0934 0 0
8:55 pm 20:55 Sunny 77 24.8 45 7.3 33 33 NW 3 6 29.94 1014 10 16.0934 0 0
9:15 pm 21:15 Clear 76 24.2 45 7.1 33 33 Calm 29.94 1014 10 16.0934 0 0
9:35 pm 21:35 Clear 74 23.6 45 7.2 35 35 Calm 29.97 1015 10 16.0934 0 0
9:55 pm 21:55 Hazy 71 21.5 47 8.5 43 43 Calm 29.97 1015 4 6.43736 0 0
10:15 pm 22:15 Clear 72 22.3 46 8 40 40 Calm 29.97 1015 10 16.0934 0 0
10:35 pm 22:35 Clear 69 20.6 48 9 47 47 Calm 29.97 1015 10 16.0934 0 0
10:55 pm 22:55 Clear 67 19.6 48 9 51 51 Calm 30 1016 10 16.0934 0 0
11:15 pm 23:15 Clear 65 18.5 49 9.7 57 57 Calm 30 1016 10 16.0934 0 0
11:35 pm 23:35 Clear 67 19.3 51 10.6 57 57 Calm 30 1016 10 16.0934 0 0
11:55 pm 23:55 Clear 66 18.9 51 10.6 59 59 Calm 30 1016 10 16.0934 0 0

Powered by AerisWeather